Regional Weather Roundup
Issued by NWS Kansas City/Pleasant Hill, MO

Home | Current Version | Previous Version | Graphics & Text | Print | Product List | Glossary Off
Versions: 1 2 3 4 5 6 7 8 9 10 11 12 13 14 15 16 17 18 19 20 21 22 23 24 25 26 27 28 29 30 31 32 33 34 35 36 37 38 39 40 41 42 43 44 45 46 47 48 49 50

000
ASUS43 KEAX 071910
RWREAX

WEATHER ROUNDUP FOR EASTERN KANSAS AND NORTHWEST MISSOURI
NATIONAL WEATHER SERVICE KANSAS CITY/PLEASANT HILL MO
100 PM CST WED DEC 07 2016

KSZ040-057-103>105-MOZ028-029-037-043-072000-
...KANSAS CITY METROPOLITAN AREA...

CITY           SKY/WX    TMP DP  RH WIND       PRES   REMARKS
K.C. INTL      LGT SNOW  25  19  78 NW9       30.31S WCI  15
K.C. DOWNTOWN  LGT SNOW  28  23  81 NW12      30.32S WCI  18
LEES SUMMIT    LGT SNOW  26  23  88 NW10      30.30F VSB 1   WCI  16
OLATHE - IXD   LGT SNOW  27  23  85 NW12      30.30F FOG     WCI  17
OLATHE - OJC   LGT SNOW  26  23  88 N7        30.30F FOG     WCI  18
LAWRENCE       LGT SNOW  26  23  88 NW14      30.33F FOG     WCI  14

$$

MOZ001>008-011>017-020>025-030>033-038>040-044>046-053-054-072000-
...NORTHERN AND CENTRAL MISSOURI...

CITY           SKY/WX    TMP DP  RH WIND       PRES   REMARKS
ST. JOSEPH     CLOUDY    27  11  51 NW13      30.33F WCI  16
MOSBY          LGT SNOW  28  23  80 W6        30.31F WCI  22
WARRENSBURG    LGT SNOW  28  25  86 NW7       30.30F WCI  21
WHITEMAN AFB   LGT SNOW  28  25  86 NW10      30.27F FOG     WCI  19
CLINTON        FLURRIES  32  19  59 NW12      30.29R WCI  23
SEDALIA        LGT SNOW  30  22  72 NW14      30.29R WCI  19
WARSAW         NOT AVBL
CHILLICOTHE      N/A     29  13  51 NW7G16    30.30F WCI  22
KIRKSVILLE     CLOUDY    29  12  49 NW12      30.24S WCI  19

$$

MOZ041-047>049-056>058-063>065-088>090-097-072000-
...EASTERN AND SOUTHERN MISSOURI...

CITY           SKY/WX    TMP DP  RH WIND       PRES   REMARKS
ST. LOUIS INTL CLOUDY    39  16  39 W9        30.22F WCI  33
SPIRIT OF STL  CLOUDY    38  19  46 W6        30.22S WCI  33
COLUMBIA       CLOUDY    34  17  50 NW8       30.25S WCI  27
JEFFERSON CITY CLOUDY    36  15  42 NW10      30.26F WCI  28
ROLLA          CLOUDY    35  16  45 NW6       30.20F WCI  30
OSAGE BEACH    CLOUDY    36  14  40 NW3       30.25S
SPRINGFIELD    CLOUDY    37  13  37 NE9       30.19F WCI  30
BRANSON        CLOUDY    36  14  41 E6        30.19F WCI  31
JOPLIN         CLOUDY    36  19  50 NE8       30.23F WCI  30
WEST PLAINS    CLOUDY    38  15  39 N6        30.18F WCI  33

$$

IAZ060-094-KSZ022-034>040-054-083-096-NEZ052-066-093-072000-
...KANSAS...SOUTHEAST NEBRASKA AND IOWA...

CITY           SKY/WX    TMP DP  RH WIND       PRES   REMARKS
TOPEKA         LGT SNOW  26  20  77 N8        30.34F WCI  18
MANHATTAN      LGT SNOW  25  20  81 N8        30.35F WCI  16
EMPORIA        LGT SNOW  27  23  85 N10       30.31R FOG     WCI  17
CHANUTE        CLOUDY    34  19  54 N15       30.26F WCI  24
WICHITA        CLOUDY    32  18  56 NE17G25   30.26F WCI  21
OMAHA          CLOUDY    23   8  52 NW15      30.32S WCI  10
LINCOLN        CLOUDY    23   6  48 NW14      30.35F WCI  11
FALLS CITY     CLOUDY    26  10  50 NW12      30.33S WCI  16
LAMONI         CLOUDY    24  12  60 W18       30.25F WCI  10
DES MOINES     CLOUDY    25  10  53 NW15      30.23S WCI  13

$$




USA.gov is the U.S. government's official web portal to all federal, state and local government web resources and services.